FW4479 Weather Reports


time (UTC)temp
F
wind
direction
speed
knots
gust
knots
rain 1hr
in
rain 24hr
in
rain mn
in
humidity
%
barometer
mb
20260504202554 72 256 6.1 9.6 0.00 0.00 0.00 25 1003.9
20260504202053 72 239 4.3 13.0 0.00 0.00 0.00 26 1004.0
20260504201552 72 246 5.2 13.0 0.00 0.00 0.00 27 1004.1
20260504201052 72 251 4.3 12.2 0.00 0.00 0.00 29 1004.2
20260504200552 72 281 5.2 12.2 0.00 0.00 0.00 25 1004.1
20260504200051 72 259 5.2 12.2 0.00 0.00 0.00 26 1004.4
20260504195550 71 256 6.1 14.8 0.00 0.00 0.00 24 1004.4
20260504195052 71 286 7.0 14.8 0.00 0.00 0.00 23 1004.5
20260504194547 71 285 6.1 13.0 0.00 0.00 0.00 29 1004.5
20260504194046 71 265 7.0 20.9 0.00 0.00 0.00 30 1004.7
20260504193546 71 238 8.7 20.9 0.00 0.00 0.00 29 1004.8
20260504193045 71 250 4.3 12.2 0.00 0.00 0.00 30 1004.7
20260504192546 71 295 6.1 13.9 0.00 0.00 0.00 29 1004.9
20260504192043 71 236 7.8 13.9 0.00 0.00 0.00 30 1005.0
20260504191542 70 318 7.8 13.0 0.00 0.00 0.00 29 1005.0
20260504191042 71 221 7.8 13.9 0.00 0.00 0.00 30 1005.2
20260504190541 70 239 7.8 13.9 0.00 0.00 0.00 29 1005.3
20260504190039 70 245 7.0 13.9 0.00 0.00 0.00 31 1005.2
20260504185539 70 274 7.8 14.8 0.00 0.00 0.00 30 1005.4
20260504185040 70 241 8.7 14.8 0.00 0.00 0.00 29 1005.4
20260504184538 70 282 7.8 14.8 0.00 0.00 0.00 30 1005.4
20260504184037 70 245 7.8 14.8 0.00 0.00 0.00 29 1005.5
20260504183536 70 259 6.1 14.8 0.00 0.00 0.00 32 1005.6
20260504183036 69 264 7.8 14.8 0.00 0.00 0.00 30 1005.7
20260504182535 69 233 7.0 14.8 0.00 0.00 0.00 31 1005.7
20260504182034 70 255 5.2 13.0 0.00 0.00 0.00 33 1005.6
20260504181533 69 219 7.0 13.0 0.00 0.00 0.00 31 1005.7
20260504181033 69 264 6.1 12.2 0.00 0.00 0.00 31 1005.8
20260504180533 68 247 5.2 12.2 0.00 0.00 0.00 33 1005.8
20260504180032 68 279 7.0 13.0 0.00 0.00 0.00 33 1005.8
20260504175531 69 226 7.8 13.0 0.00 0.00 0.00 33 1006.0
20260504175031 68 266 5.2 13.0 0.00 0.00 0.00 34 1005.9
20260504174533 69 303 7.0 13.0 0.00 0.00 0.00 35 1005.9
20260504174030 68 295 5.2 18.2 0.00 0.00 0.00 35 1006.0
20260504173529 68 265 9.6 20.9 0.00 0.00 0.00 34 1006.1
20260504173029 68 217 12.2 20.9 0.00 0.00 0.00 32 1006.0
20260504172527 68 241 8.7 19.1 0.00 0.00 0.00 33 1006.0
20260504172026 67 271 8.7 15.6 0.00 0.00 0.00 34 1006.1
20260504171526 67 243 7.8 17.4 0.00 0.00 0.00 35 1006.0
20260504171027 67 231 10.4 17.4 0.00 0.00 0.00 36 1006.1
20260504170524 67 301 7.8 15.6 0.00 0.00 0.00 36 1006.0
20260504151003 61 257 7.0 15.6 0.00 0.00 0.00 39 1007.1
20260504150503 61 243 6.1 14.8 0.00 0.00 0.00 38 1007.1
20260504141054 59 252 7.0 13.9 0.00 0.00 0.00 39 1007.3
20260504140552 59 241 8.7 13.9 0.00 0.00 0.00 39 1007.3
20260504130543 57 207 6.1 15.6 0.00 0.00 0.00 41 1007.6
20260504110524 51 243 5.2 15.6 0.00 0.00 0.00 42 1007.8
20260504100518 50 218 4.3 13.9 0.00 0.00 0.00 41 1007.3
20260504082005 51 211 3.5 8.7 0.00 0.00 0.00 40 1008.4
20260504081604 51 243 5.2 8.7 0.00 0.00 0.00 40 1008.4
20260504081002 51 244 3.5 12.2 0.00 0.00 0.00 40 1008.5
20260504080502 51 248 5.2 12.2 0.00 0.00 0.00 40 1008.5
20260504050535 51 212 1.7 8.7 0.00 0.00 0.00 39 1009.4
20260504045532 51 234 2.6 6.1 0.00 0.00 0.00 40 1009.6
20260504045032 51 214 2.6 7.8 0.00 0.00 0.00 39 1009.7
20260504044531 51 236 3.5 7.8 0.00 0.00 0.00 39 1009.6
20260504044033 52 251 3.5 7.0 0.00 0.00 0.00 39 1009.6
20260504043530 51 248 2.6 8.7 0.00 0.00 0.00 39 1009.6
20260504043029 52 240 3.5 8.7 0.00 0.00 0.00 39 1009.6
20260504042529 52 240 2.6 6.1 0.00 0.00 0.00 39 1009.7
20260504042027 52 250 2.6 6.1 0.00 0.00 0.00 39 1009.6
20260504041538 52 245 2.6 6.1 0.00 0.00 0.00 39 1009.7
20260504041025 52 235 2.6 7.0 0.00 0.00 0.00 39 1009.7
20260504040524 52 221 2.6 7.8 0.00 0.00 0.00 39 1009.7
20260504040024 53 228 3.5 7.8 0.00 0.00 0.00 39 1009.8
20260504035523 53 240 4.3 10.4 0.00 0.00 0.00 39 1009.8
20260504035023 53 236 6.1 10.4 0.00 0.00 0.00 38 1009.7
20260504034523 53 234 4.3 9.6 0.00 0.00 0.00 39 1009.7
20260504034021 53 242 3.5 13.9 0.00 0.00 0.00 39 1009.7
20260504033521 53 241 7.0 13.9 0.00 0.00 0.00 39 1009.6
20260504033021 52 257 4.3 10.4 0.00 0.00 0.00 40 1009.7
20260504032522 52 250 5.2 10.4 0.00 0.00 0.00 40 1009.8
20260504032024 53 259 4.3 11.3 0.00 0.00 0.00 40 1009.7
20260504031522 53 190 3.5 8.7 0.00 0.00 0.00 39 1009.8
20260504031021 53 277 4.3 10.4 0.00 0.00 0.00 39 1009.7
20260504030521 53 216 2.6 10.4 0.00 0.00 0.00 39 1009.7
20260504030021 53 245 4.3 11.3 0.00 0.00 0.00 39 1009.7
20260504025520 53 233 6.1 11.3 0.00 0.00 0.00 39 1009.7
20260504025020 53 242 5.2 13.0 0.00 0.00 0.00 39 1009.7
20260504024520 53 239 7.0 13.0 0.00 0.00 0.00 39 1009.7
20260504024020 53 264 7.8 13.0 0.00 0.00 0.00 39 1009.8
20260504023519 53 270 7.8 13.9 0.00 0.00 0.00 39 1009.9
20260504023020 54 233 7.8 17.4 0.00 0.00 0.00 38 1010.0
20260504022522 54 276 7.8 19.1 0.00 0.00 0.00 38 1009.9
20260504022018 54 245 9.6 16.5 0.00 0.00 0.00 38 1010.0
20260504021518 54 270 7.0 15.6 0.00 0.00 0.00 38 1010.1
20260504021018 54 233 8.7 20.0 0.00 0.00 0.00 37 1010.1
20260504020518 54 248 7.0 18.2 0.00 0.00 0.00 38 1010.1
20260504020031 54 265 6.1 18.2 0.00 0.00 0.00 37 1010.1
20260504015518 53 269 6.1 9.6 0.00 0.00 0.00 38 1010.2
20260504015018 53 271 4.3 11.3 0.00 0.00 0.00 38 1010.2
20260504014521 53 295 4.3 12.2 0.00 0.00 0.00 39 1010.1
20260504014019 53 259 5.2 11.3 0.00 0.00 0.00 38 1010.2
20260504013517 53 255 6.1 13.0 0.00 0.00 0.00 38 1010.0
20260504013017 53 284 7.8 13.0 0.00 0.00 0.00 38 1010.0
20260504012517 53 255 7.8 19.1 0.00 0.00 0.00 39 1010.1
20260504012118 53 285 6.1 19.1 0.00 0.00 0.00 39 1010.2
20260504011517 53 248 9.6 17.4 0.00 0.00 0.00 38 1010.2
20260504011016 53 268 7.8 20.9 0.00 0.00 0.00 38 1010.3
20260504010516 53 219 8.7 20.9 0.00 0.00 0.00 39 1010.2
20260504010016 53 278 6.1 13.0 0.00 0.00 0.00 40 1010.3
20260504005515 52 300 7.0 16.5 0.00 0.00 0.00 40 1010.3
20260504005015 52 283 7.0 18.2 0.00 0.00 0.00 41 1010.4
20260504004516 53 269 8.7 19.1 0.00 0.00 0.00 40 1010.5
20260504004014 53 278 12.2 22.6 0.00 0.00 0.00 40 1010.5
20260504003514 53 274 11.3 22.6 0.00 0.00 0.00 37 1010.5
20260504003014 53 289 7.0 13.0 0.00 0.00 0.00 36 1010.4
20260504002514 53 276 8.7 17.4 0.00 0.00 0.00 36 1010.3
20260504002015 53 266 7.0 15.6 0.00 0.00 0.00 35 1010.2
20260504001522 53 285 7.0 17.4 0.00 0.00 0.00 35 1010.1
20260504001014 53 239 6.1 15.6 0.00 0.00 0.00 36 1010.0
20260504000515 53 289 7.8 15.6 0.00 0.00 0.00 35 1010.1
20260504000012 53 259 5.2 18.2 0.00 0.00 0.00 36 1010.1
20260503235512 53 288 8.7 18.2 0.00 0.00 0.00 36 1010.2
20260503235012 53 269 8.7 21.7 0.00 0.00 0.00 36 1010.2
20260503234512 53 317 10.4 21.7 0.00 0.00 0.00 36 1010.3
20260503234013 53 261 7.8 20.0 0.00 0.00 0.00 36 1010.5
20260503233512 54 262 8.7 20.0 0.00 0.00 0.00 35 1010.3
20260503233018 54 250 8.7 23.5 0.00 0.00 0.00 35 1010.2
20260503232514 54 297 11.3 23.5 0.00 0.00 0.00 34 1010.1
20260503232011 54 290 7.0 13.9 0.00 0.00 0.00 37 1010.1
20260503231512 54 275 6.1 20.0 0.00 0.00 0.00 36 1010.0
20260503231011 55 279 9.6 22.6 0.00 0.00 0.00 34 1009.9
20260503230513 55 267 9.6 22.6 0.00 0.00 0.00 33 1010.0
20260503230025 55 273 7.0 20.0 0.00 0.00 0.00 32 1009.9
20260503225509 55 242 7.8 16.5 0.00 0.00 0.00 31 1009.7
20260503225009 55 271 9.6 16.5 0.00 0.00 0.00 30 1009.8
20260503224509 55 262 5.2 13.9 0.00 0.00 0.00 30 1009.8
20260503224011 55 274 7.0 18.2 0.00 0.00 0.00 31 1009.8
20260503223511 55 299 8.7 18.2 0.00 0.00 0.00 30 1009.8
20260503223009 55 266 9.6 15.6 0.00 0.00 0.00 31 1009.9
20260503222509 55 311 7.0 15.6 0.00 0.00 0.00 31 1009.9
20260503222007 55 285 7.0 15.6 0.00 0.00 0.00 31 1009.8
20260503221508 55 330 7.8 15.6 0.00 0.00 0.00 30 1009.8
20260503221007 55 292 6.1 13.0 0.00 0.00 0.00 32 1009.8
20260503220507 55 287 7.0 13.0 0.00 0.00 0.00 32 1009.9
20260503220008 55 318 5.2 16.5 0.00 0.00 0.00 32 1009.9
20260503215507 55 345 7.0 16.5 0.00 0.00 0.00 30 1009.9
20260503215006 55 305 7.8 13.9 0.00 0.00 0.00 31 1009.9
20260503214519 56 333 8.7 15.6 0.00 0.00 0.00 30 1009.8
20260503214010 56 275 8.7 16.5 0.00 0.00 0.00 30 1009.9
20260503213505 56 283 6.1 16.5 0.00 0.00 0.00 31 1009.8
20260503213005 56 283 6.1 15.6 0.00 0.00 0.00 29 1009.8
20260503212508 56 283 7.0 16.5 0.00 0.00 0.00 31 1009.7
20260503212004 56 282 7.8 16.5 0.00 0.00 0.00 30 1009.7
20260503211504 57 275 7.0 12.2 0.00 0.00 0.00 32 1009.7
20260503211002 56 311 6.1 11.3 0.00 0.00 0.00 33 1009.7
20260503210502 55 255 4.3 7.8 0.00 0.00 0.00 33 1009.9
20260503210001 55 280 4.3 7.8 0.00 0.00 0.00 32 1009.8
20260503205600 55 233 2.6 9.6 0.00 0.00 0.00 32 1009.8
20260503205100 55 359 5.2 12.2 0.00 0.00 0.00 32 1010.0
20260503204620 55 309 4.3 12.2 0.00 0.00 0.00 33 1010.0
20260503204057 55 287 4.3 11.3 0.00 0.00 0.00 33 1010.1
20260503203557 55 252 5.2 11.3 0.00 0.00 0.00 33 1010.1
20260503203101 55 300 3.5 12.2 0.00 0.00 0.00 34 1010.2